News

0-ATPL(A) free webinar

Flying Academy is hosting on 21th of August from 17:00 to 18:00 CET (UTC+2)
a free live webinar where our Flight Training Consultants will present all details about our 0-ATPL(A) course.

During this one hour presentation we will discuss about:

- course description

- requirements to enroll

- course duration and cost

- living in the Czech Republic

- visa assistance for non EU trainees

- extra curricular activities.

We will also have a Q&A session at the end so that all question which you might have will be answered.

You can register for free HERE.

See you on the webinar and soon aboard our airplanes!

continue reading >>

Flight Pad - new version

There is a new version of Flight Pad available.

To install new verison click on hyperlink install application in browser on your iPad.

continue reading >>

ATPL650 - theoretical course - starts in Brno as of 16.08.2014

Flying Academy opens new ATPL(A) theoretical course in Brno as of  16th of August

License ATPL(A) is the highest level of pilot's education. Pilot with this license is authorized to act as a Pilot in Command (Captain) or Fist Officer (Co-pilot) of an aircraft engaged in commercial flying.

continue reading >>

archive

Latest blog post

10 advantages for using the iPad in the cockpit

Flying Academy – the flight training organization managed by airline pilots – has started 2 months ago to equip its trainees with iPads. The Academy took the lead to revolutionize the cockpit and pilot training, realizing the vision of paperless flying and becoming the first Czech FTO to fly with iPad EFBs. The process will make learning to fly much easier, more efficient and accurate, useful for private pilots and important for future commercial pilots.

After having the iPad in trials, Flying Academy’s flight instructors have concluded that it’s extremely useful in the cockpit because it’s:

1. Fast – extremely short response time;

2. Reliable – as the iOS has very limited crashes;

3. Easy to use – intuitive menu and apps.

continue reading >>

archive

Latest weather

LKKV

LKKV 271030Z 31004KT 9999 SCT033 15/07 Q1015

LKPR

LKPR 271030Z 34009KT 9999 SCT030 14/08 Q1014 NOSIG

LKTB

LKTB 271030Z 36010KT 340V040 9999 BKN025 16/11 Q1012 NOSIG



Briefing tools

METAR & TAF Europe

METAR & TAF CZ

Weather Radar CZ

AIP Czech Republic

From 0 to 500 hours with Flying Academy Find out how